{"data":{"norad_id":58626,"intl_designator":"2023-203J","name":"STARLINK-31086","alt_names":[],"object_type":"PAYLOAD","status":"ACTIVE","operator":null,"country":"US","launch_date":"2023-12-23","launch_site_code":"AFETR","launch_vehicle":null,"mission":null,"orbit_class":"UNKNOWN","rcs_meters":null,"size_class":null,"mass_kg":null,"dimensions":null,"purposes":["comms"],"wikipedia_slug":null,"has_3d_model":false,"image_url":null,"decayed_at":null,"tle_current":{"epoch":"2026-05-24T23:33:22.103712Z","epoch_age_seconds":66783,"freshness":"FRESH","line1":"1 58626U 23203J   26144.98150583  .00000536  00000+0  29025-4 0  9998","line2":"2 58626  43.0045 355.8627 0001839 278.1803  81.8840 15.27576592135233","mean_motion":15.27576592,"eccentricity":0.0001839,"inclination_deg":43.0045,"raan_deg":355.8627,"arg_perigee_deg":278.1803,"mean_anomaly_deg":81.884,"bstar":2.9025e-5,"rev_number":13523,"period_min":94.266959021325,"perigee_km":481.79752683692,"apogee_km":484.32107483637,"semimajor_km":6861.1963008366,"source":"CELESTRAK","updated_at":"2026-05-25T13:38:18.706545Z"}}}